Farmville, Virginia, United States (23901)
Lat: 37.30N, Lon: 78.39W
Wx Zone: VAZ060
Local Info
Past Weather Observations for Today

NOTE: This archive is for the closest National Weather Service station to Farmville. Information may differ from the station used for current weather conditions.

Click here for Long-term Archive

Time Weather Temperature Dewpoint Humidity Pressure Winds Precip Visibility
14:35
Mostly Cloudy
70°F / 21°C 39°F / 4°C 33% 29.89 in
(1012 mb)
NNE 5.8 mph
(NNE 9 kph)
- 10SM
14:15
Clear
70°F / 21°C 37°F / 3°C 31% 29.89 in
(1012 mb)
NNE 9.2 mph
(NNE 15 kph)
- 10SM
13:55
Partly Cloudy
70°F / 21°C 37°F / 3°C 31% 29.89 in
(1012 mb)
N 6.9 mph
(N 11 kph)
- 10SM
13:35
Mostly Cloudy
70°F / 21°C 39°F / 4°C 33% 29.92 in
(1013 mb)
NNE 9.2 mph
(NNE 15 kph)
- 10SM
13:15
Overcast
68°F / 20°C 39°F / 4°C 35% 29.92 in
(1013 mb)
NE 5.8 mph
(NE 9 kph)
- 10SM
12:55
Mostly Cloudy
68°F / 20°C 37°F / 3°C 33% 29.92 in
(1013 mb)
N 8.1 mph
(N 13 kph)
- 10SM
12:35
Mostly Cloudy
66°F / 19°C 39°F / 4°C 37% 29.95 in
(1014 mb)
W 4.6 mph
(W 7 kph)
- 10SM
12:15
Partly Cloudy
66°F / 19°C 39°F / 4°C 37% 29.95 in
(1014 mb)
NNW 6.9 mph
(NNW 11 kph)
- 10SM
11:55
Partly Cloudy
66°F / 19°C 39°F / 4°C 37% 29.95 in
(1014 mb)
NE 8.1 mph
(NE 13 kph)
- 10SM
11:35
Clear
66°F / 19°C 41°F / 5°C 40% 29.95 in
(1014 mb)
NE 10.4 mph
(NE 17 kph)
- 10SM
11:15
Clear
64°F / 18°C 41°F / 5°C 43% 29.95 in
(1014 mb)
NE 9.2 mph
(NE 15 kph)
- 10SM
10:55
Clear
64°F / 18°C 41°F / 5°C 43% 29.95 in
(1014 mb)
NE 6.9 mph
(NE 11 kph)
- 10SM
10:35
Clear
63°F / 17°C 39°F / 4°C 42% 29.98 in
(1015 mb)
E 3.5 mph
(E 6 kph)
- 10SM
10:15
Clear
63°F / 17°C 41°F / 5°C 45% 29.98 in
(1015 mb)
NE 9.2 mph
(NE 15 kph)
- 10SM
09:55
Clear
61°F / 16°C 39°F / 4°C 45% 29.98 in
(1015 mb)
Calm - 10SM
09:35
Clear
61°F / 16°C 39°F / 4°C 45% 29.98 in
(1015 mb)
NNW 6.9 mph
(NNW 11 kph)
- 10SM
09:15
Clear
59°F / 15°C 37°F / 3°C 45% 29.98 in
(1015 mb)
N 5.8 mph
(N 9 kph)
- 10SM
08:55
Clear
57°F / 14°C 37°F / 3°C 48% 29.95 in
(1014 mb)
N 5.8 mph
(N 9 kph)
- 10SM
08:35
Clear
57°F / 14°C 37°F / 3°C 48% 29.95 in
(1014 mb)
N 5.8 mph
(N 9 kph)
- 10SM
08:15
Clear
55°F / 13°C 37°F / 3°C 51% 29.95 in
(1014 mb)
NNE 6.9 mph
(NNE 11 kph)
- 10SM
07:55
Clear
54°F / 12°C 36°F / 2°C 51% 29.95 in
(1014 mb)
NNW 5.8 mph
(NNW 9 kph)
- 10SM
07:35
Clear
52°F / 11°C 36°F / 2°C 54% 29.95 in
(1014 mb)
N 3.5 mph
(N 6 kph)
- 10SM
07:15
Clear
50°F / 10°C 36°F / 2°C 58% 29.95 in
(1014 mb)
N 4.6 mph
(N 7 kph)
- 10SM
06:55
Clear
48°F / 9°C 36°F / 2°C 62% 29.98 in
(1015 mb)
Calm - 10SM
06:35
Clear
45°F / 7°C 37°F / 3°C 76% 29.98 in
(1015 mb)
Calm - 10SM
06:15
Clear
41°F / 5°C 36°F / 2°C 81% 29.98 in
(1015 mb)
Calm - 10SM
05:55
Clear
37°F / 3°C 37°F / 3°C 100% 29.95 in
(1014 mb)
Calm - 10SM
05:35
Clear
37°F / 3°C 37°F / 3°C 100% 29.95 in
(1014 mb)
Calm - 10SM
05:15
Clear
36°F / 2°C 36°F / 2°C 100% 29.95 in
(1014 mb)
Calm - 10SM
04:55
Clear
37°F / 3°C 36°F / 2°C 93% 29.98 in
(1015 mb)
SSE 5.8 mph
(SSE 9 kph)
- 10SM
04:35
Clear
39°F / 4°C 39°F / 4°C 100% 29.95 in
(1014 mb)
Calm - 10SM
04:15
Clear
39°F / 4°C 37°F / 3°C 93% 29.95 in
(1014 mb)
SSW 3.5 mph
(SSW 6 kph)
- 10SM
03:55
Clear
41°F / 5°C 34°F / 1°C 76% 29.95 in
(1014 mb)
Calm - 10SM
03:35
Clear
43°F / 6°C 36°F / 2°C 76% 29.95 in
(1014 mb)
Calm - 10SM
03:15
Clear
43°F / 6°C 36°F / 2°C 76% 29.95 in
(1014 mb)
Calm - 10SM
02:55
Clear
45°F / 7°C 36°F / 2°C 71% 29.92 in
(1013 mb)
Calm - 10SM
02:35
Clear
45°F / 7°C 36°F / 2°C 71% 29.92 in
(1013 mb)
NNW 3.5 mph
(NNW 6 kph)
- 10SM
02:15
Clear
46°F / 8°C 36°F / 2°C 66% 29.92 in
(1013 mb)
Calm - 10SM
01:55
Clear
45°F / 7°C 36°F / 2°C 71% 29.92 in
(1013 mb)
NNE 4.6 mph
(NNE 7 kph)
- 10SM
01:35
Clear
45°F / 7°C 36°F / 2°C 71% 29.92 in
(1013 mb)
Calm - 10SM
01:15
Clear
45°F / 7°C 36°F / 2°C 71% 29.92 in
(1013 mb)
Calm - 10SM
00:55
Clear
46°F / 8°C 36°F / 2°C 66% 29.92 in
(1013 mb)
N 3.5 mph
(N 6 kph)
- 10SM
00:35
Clear
48°F / 9°C 36°F / 2°C 62% 29.95 in
(1014 mb)
Calm - 10SM
00:15
Clear
46°F / 8°C 34°F / 1°C 62% 29.95 in
(1014 mb)
N 4.6 mph
(N 7 kph)
- 10SM
Time Weather Temperature Dewpoint Humidity Pressure Winds Precip Visibility


Weather for websites

WeatherForYou.com, LLC is not responsible for any damages or problems caused by this service. Current weather conditions are obtained from the closest station including government and personal stations which may have varying degrees of accuracy. Weather forecasts are derived from the NOAA NDFD. Like all things, this site belongs to Jesus Christ... He just trusts us to maintain it. If you have any questions or comments email webmaster@weatherforyou.com

Copyright © 2015, WeatherForYou.com LLC. All rights reserved.